Seminole, TX

12:19 PM CST on November 12, 2019 (GMT -0600)
Seminole

Weather History for KGNC - October, 2019

Change the Weather History Date:

Tuesday, October 22, 2019

  Actual Average (WUND) Record (WUND)
Temperature  
Mean Temperature 54 °F -  
Max Temperature 74 °F - - (-1)
Min Temperature 34 °F - - (-1)
Degree Days  
Heating Degree Days 12    
Growing Degree Days 4 (Base 50)    
Moisture  
Dew Point 21 °F    
Average Humidity 31    
Maximum Humidity 61    
Minimum Humidity 13    
Precipitation  
Precipitation 0.00 in - - ()
Sea Level Pressure  
Sea Level Pressure 30.20 in    
Wind  
Wind Speed 3 mph (WSW)    
Max Wind Speed 10 mph    
Max Gust Speed 17 mph    
Visibility 10 miles    
Events      
Averages and records for this station are not official NWS values.
T = Trace of Precipitation, MM = Missing Value Source: NWS Daily Summary

Daily Weather History Graph

Daily Weather History Graph

Search for Another Location

Airport or City:

Astronomy

Oct. 22, 2019 Rise Set
Actual Time 7:59 AM CDT 7:09 PM CDT
Civil Twilight 7:34 AM CDT 7:34 PM CDT
Nautical Twilight 7:06 AM CDT 8:03 PM CDT
Astronomical Twilight 6:37 AM CDT 8:32 PM CDT
Moon 1:39 AM CDT (10/22) 3:55 PM CDT (10/22)
Length of Visible Light 12h 00m
Length of Day
11h 10m
Last Quarter, 37% of the Moon is Illuminated
Oct 22
Last Quarter
Oct 27
New
Nov 4
First Quarter
Nov 12
Full
Nov 19
Last Quarter

Hourly Weather History & Observations

Time (CDT) Temp. Windchill Dew Point Humidity Pressure Visibility Wind Dir Wind Speed Gust Speed Precip Events Conditions
12:15 AM 47.8 °F - 18.3 °F 31% 30.18 in 10.0 mi NE 8.1 mph - N/A   Clear
12:35 AM 52.3 °F - 17.1 °F 25% 30.18 in 10.0 mi North 3.5 mph - N/A   Clear
12:55 AM 48.0 °F - 18.0 °F 30% 30.19 in 10.0 mi Calm Calm - N/A   Clear
1:15 AM 46.9 °F - 18.1 °F 32% 30.20 in 10.0 mi Calm Calm - N/A   Clear
1:35 AM 47.7 °F - 18.3 °F 31% 30.20 in 10.0 mi Calm Calm - N/A   Clear
1:55 AM 48.6 °F - 17.8 °F 29% 30.20 in 10.0 mi Calm Calm - N/A   Clear
2:15 AM 51.4 °F - 18.1 °F 27% 30.20 in 10.0 mi Calm Calm - N/A   Clear
2:55 AM 43.3 °F - 20.3 °F 40% 30.20 in 10.0 mi Calm Calm - N/A   Clear
3:15 AM 39.4 °F - 21.6 °F 49% 30.21 in 10.0 mi Calm Calm - N/A   Clear
3:35 AM 39.6 °F 37.4 °F 21.4 °F 48% 30.21 in 10.0 mi NNE 3.5 mph - N/A   Clear
4:15 AM 39.9 °F - 21.6 °F 48% 30.21 in 10.0 mi Calm Calm - N/A   Clear
4:35 AM 41.4 °F - 21.7 °F 46% 30.21 in 10.0 mi Calm Calm - N/A   Clear
4:55 AM 40.5 °F - 21.7 °F 47% 30.21 in 10.0 mi Calm Calm - N/A   Clear
5:35 AM 34.9 °F 29.9 °F 21.6 °F 58% 30.21 in 10.0 mi WNW 5.8 mph - N/A   Clear
5:55 AM 35.8 °F - 22.1 °F 58% 30.22 in 10.0 mi Calm Calm - N/A   Clear
6:15 AM 37.0 °F 34.5 °F 21.2 °F 53% 30.23 in 10.0 mi North 3.5 mph - N/A   Clear
6:35 AM 36.5 °F 33.9 °F 21.6 °F 55% 30.23 in 10.0 mi North 3.5 mph - N/A   Clear
6:55 AM 35.6 °F - 20.8 °F 55% 30.23 in 10.0 mi Calm Calm - N/A   Clear
7:15 AM 34.9 °F - 21.0 °F 57% 30.25 in 10.0 mi Calm Calm - N/A   Clear
7:35 AM 34.5 °F - 21.4 °F 59% 30.25 in 10.0 mi Calm Calm - N/A   Clear
7:55 AM 35.8 °F - 22.3 °F 58% 30.25 in 10.0 mi Calm Calm - N/A   Clear
8:15 AM 34.2 °F - 22.1 °F 61% 30.26 in 10.0 mi Calm Calm - N/A   Clear
8:35 AM 37.0 °F 34.5 °F 23.4 °F 58% 30.26 in 10.0 mi NNW 3.5 mph - N/A   Clear
8:55 AM 41.9 °F - 23.4 °F 48% 30.27 in 10.0 mi Calm Calm - N/A   Clear
9:15 AM 44.6 °F - 23.2 °F 43% 30.28 in 10.0 mi Calm Calm - N/A   Clear
9:35 AM 46.9 °F - 23.7 °F 40% 30.29 in 10.0 mi Calm Calm - N/A   Clear
9:55 AM 49.8 °F - 24.1 °F 37% 30.30 in 10.0 mi Calm Calm - N/A   Clear
10:15 AM 52.0 °F - 24.4 °F 34% 30.30 in 10.0 mi Calm Calm - N/A   Clear
10:35 AM 54.3 °F - 24.4 °F 31% 30.31 in 10.0 mi East 3.5 mph - N/A   Clear
10:55 AM 56.3 °F - 23.9 °F 29% 30.30 in 10.0 mi ESE 3.5 mph - N/A   Clear
11:15 AM 57.7 °F - 23.5 °F 27% 30.29 in 10.0 mi ESE 3.5 mph - N/A   Clear
11:35 AM 59.0 °F - 23.5 °F 26% 30.28 in 10.0 mi Calm Calm - N/A   Clear
11:55 AM 60.1 °F - 22.8 °F 24% 30.28 in 10.0 mi Calm Calm - N/A   Clear
12:15 PM 61.7 °F - 22.6 °F 22% 30.28 in 10.0 mi Calm Calm - N/A   Clear
12:55 PM 64.4 °F - 21.7 °F 20% 30.27 in 10.0 mi Calm Calm - N/A   Clear
1:35 PM 67.1 °F - 19.9 °F 17% 30.25 in 10.0 mi WNW 5.8 mph - N/A   Clear
1:55 PM 68.9 °F - 18.9 °F 15% 30.24 in 10.0 mi Calm Calm - N/A   Clear
2:15 PM 70.3 °F - 19.6 °F 15% 30.22 in 10.0 mi Calm Calm - N/A   Clear
2:35 PM 70.3 °F - 17.4 °F 13% 30.21 in 10.0 mi West 4.6 mph - N/A   Clear
2:55 PM 71.4 °F - 18.9 °F 14% 30.21 in 10.0 mi WSW 6.9 mph - N/A   Clear
3:15 PM 71.6 °F - 19.6 °F 14% 30.19 in 10.0 mi WSW 9.2 mph - N/A   Clear
3:35 PM 72.1 °F - 19.6 °F 14% 30.18 in 10.0 mi West 6.9 mph - N/A   Clear
3:55 PM 72.7 °F - 20.1 °F 14% 30.18 in 10.0 mi West 8.1 mph 17.3 mph N/A   Clear
4:15 PM 73.4 °F - 20.8 °F 14% 30.17 in 10.0 mi West 10.4 mph - N/A   Clear
4:35 PM 72.9 °F - 19.9 °F 14% 30.16 in 10.0 mi WSW 5.8 mph - N/A   Clear
4:55 PM 73.4 °F - 20.3 °F 14% 30.16 in 10.0 mi West 8.1 mph - N/A   Clear
5:15 PM 73.6 °F - 20.8 °F 14% 30.15 in 10.0 mi West 9.2 mph - N/A   Clear
5:35 PM 73.4 °F - 19.9 °F 13% 30.14 in 10.0 mi West 6.9 mph - N/A   Clear
5:55 PM 72.7 °F - 19.9 °F 14% 30.14 in 10.0 mi SW 6.9 mph - N/A   Clear
6:15 PM 71.8 °F - 20.1 °F 14% 30.14 in 10.0 mi WSW 8.1 mph - N/A   Clear
6:35 PM 70.7 °F - 19.6 °F 14% 30.14 in 10.0 mi WSW 6.9 mph - N/A   Clear
6:55 PM 67.5 °F - 20.1 °F 16% 30.13 in 10.0 mi SW 3.5 mph - N/A   Clear
7:15 PM 64.8 °F - 20.3 °F 18% 30.13 in 10.0 mi SW 4.6 mph - N/A   Clear
7:35 PM 63.9 °F - 20.3 °F 19% 30.13 in 10.0 mi SW 4.6 mph - N/A   Clear
7:55 PM 62.8 °F - 21.0 °F 20% 30.13 in 10.0 mi SW 4.6 mph - N/A   Clear
8:15 PM 61.3 °F - 21.2 °F 21% 30.13 in 10.0 mi SW 5.8 mph - N/A   Clear
8:35 PM 59.0 °F - 21.6 °F 24% 30.13 in 10.0 mi SW 4.6 mph - N/A   Clear
8:55 PM 58.6 °F - 21.6 °F 24% 30.13 in 10.0 mi SW 5.8 mph - N/A   Clear
9:15 PM 57.4 °F - 21.9 °F 25% 30.13 in 10.0 mi SW 4.6 mph - N/A   Clear
9:35 PM 56.8 °F - 21.9 °F 26% 30.12 in 10.0 mi SW 5.8 mph - N/A   Clear
9:55 PM 55.6 °F - 21.9 °F 27% 30.12 in 10.0 mi SW 4.6 mph - N/A   Clear
10:15 PM 54.3 °F - 22.1 °F 29% 30.12 in 10.0 mi SSW 4.6 mph - N/A   Clear
10:35 PM 51.4 °F - 22.8 °F 33% 30.12 in 10.0 mi SW 4.6 mph - N/A   Clear
10:55 PM 50.0 °F - 23.0 °F 35% 30.12 in 10.0 mi SW 5.8 mph - N/A   Clear
11:15 PM 50.0 °F - 22.5 °F 34% 30.12 in 10.0 mi SW 6.9 mph - N/A   Clear
11:35 PM 50.2 °F - 22.1 °F 33% 30.11 in 10.0 mi SW 5.8 mph - N/A   Clear
11:55 PM 49.1 °F - 21.7 °F 34% 30.11 in 10.0 mi SW 6.9 mph - N/A   Clear